Location: Unspecified
(0.0000°N, 0.0000°E)
Time: 23:55:24
(UTC+02:00)

ISS - All Passes

Search period start: 07 July 2015 00:00
Search period end: 17 July 2015 00:00
Orbit: 398 x 402 km, 51.6° (Epoch: 07 July)

Date Brightness Start Highest point End Pass type
(mag) Time Alt. Az. Time Alt. Az. Time Alt. Az.
07 Jul - 06:23:07 10° WSW 06:26:01 29° NW 06:28:53 10° N visible
07 Jul - 17:56:02 10° NW 17:59:11 52° SW 18:02:20 10° SSE daylight
08 Jul - 05:29:14 10° SW 05:32:29 84° ESE 05:35:43 10° NE visible
08 Jul - 17:02:33 10° NNW 17:05:38 44° NE 17:08:45 10° SE daylight
09 Jul - 04:36:08 10° S 04:38:54 26° SE 04:41:42 10° ENE night (unlit)
09 Jul - 16:10:01 10° NNE 16:12:01 16° NE 16:14:07 10° E daylight
09 Jul - 17:46:21 10° W 17:48:18 15° SW 17:50:08 10° SSW daylight
10 Jul - 05:18:49 10° WSW 05:21:31 24° NW 05:24:10 10° N night (unlit)
10 Jul - 16:51:35 10° NW 16:54:38 40° SW 16:57:42 10° SSE daylight
11 Jul - 04:24:39 10° SW 04:27:54 76° NW 04:31:07 10° NNE night (unlit)
11 Jul - 15:57:52 10° NNW 16:01:02 57° NE 16:04:12 10° SE daylight
12 Jul - 03:31:19 10° S 03:34:15 32° SE 03:37:13 10° ENE night (unlit)
12 Jul - 15:05:01 10° N 15:07:21 19° NE 15:09:46 10° ESE daylight
12 Jul - 16:42:13 10° WSW 16:43:39 12° SW 16:44:55 10° SSW daylight
13 Jul - 02:39:17 10° SSE 02:40:30 12° SE 02:41:55 10° ESE night (unlit)
13 Jul - 04:14:20 10° WSW 04:16:49 20° NW 04:19:12 10° N night (unlit)
13 Jul - 15:46:57 10° WNW 15:49:53 32° SW 15:52:50 10° SSE daylight
14 Jul - 03:19:54 10° SW 03:23:06 59° NW 03:26:17 10° NNE night (unlit)
14 Jul - 14:53:00 10° NNW 14:56:12 74° NE 14:59:25 10° SE daylight
15 Jul - 02:26:20 10° SSW 02:29:23 39° SE 02:32:27 10° NE night (unlit)
15 Jul - 13:59:52 10° N 14:02:27 23° NE 14:05:07 10° ESE daylight
16 Jul - 01:33:48 10° SSE 01:35:36 14° SE 01:37:31 10° E night (unlit)
16 Jul - 03:09:42 10° W 03:11:53 16° NW 03:13:57 10° NNW night (unlit)
16 Jul - 14:42:08 10° WNW 14:44:55 26° SW 14:47:42 10° S daylight
